Location: Mantua Corners
(41.3103°N, 81.2212°W)
Time: 19:26:26
(UTC+00:00)

Hubble Space Telescope - Visible Passes

Search period start: 11 December 2025 00:00
Search period end: 21 December 2025 00:00
Orbit: 480 x 483 km, 28.5° (Epoch: 11 December)

Date Brightness Start Highest point End Pass type
(mag) Time Alt. Az. Time Alt. Az. Time Alt. Az.
13 Dec 3.2 00:05:10 10° SSW 00:06:36 12° S 00:06:51 12° S visible
13 Dec 3.2 23:35:55 10° SSW 23:37:22 12° S 23:38:47 10° SSE visible
14 Dec 3.2 23:06:40 10° SSW 23:08:06 12° S 23:09:31 10° SSE visible
15 Dec 3.3 22:37:23 10° SSW 22:38:48 12° S 22:40:14 10° SSE visible
